[[{"header":{"parameterUnit":"m.s-1","parameterCategory":1,"la1":30.2991,"la2":30.254,"lo1":-89.0895,"lo2":-89.0444,"dy":0.0017,"dx":0.0017,"nx":28,"ny":28,"refTime":"2025-01-04T03:00:00:Z","depth":0,"parameterNumber":2,"parameterNumberName":"U-component_of_WINDS"},"data":[0,0,0,0,0,0,0,0,0,0,0,0,0,0,0,0,0,0,0,0,0,0,0,0,0,0,0,0,0,0,0,0,0,0,0,0,0,0,0,0,0,0,0,0,0,0,0,0,0,0,0,0,0,0,0,0,0,0,-6.1817,-6.1818,0,-6.189,-6.189,-6.1891,-6.1817,-6.1814,-6.1811,-6.1809,-6.1881,-6.1885,-6.189,0,0,0,0,0,0,0,0,0,0,0,0,0,-6.1611,-6.1615,-6.1817,-6.1818,-6.1819,-6.1889,-6.189,-6.1891,-6.1818,-6.1814,-6.1811,-6.1807,-6.1879,-6.1885,-6.189,0,0,0,0,0,0,0,0,0,0,0,0,0,-6.1694,-6.1617,-6.1816,-6.179,-6.1789,-6.1889,-6.189,-6.1892,-6.1818,-6.1814,-6.181,-6.1806,-6.1877,-6.1884,-6.1891,-6.202,0,0,-6.1912,-6.1915,0,0,0,0,0,0,0,0,-6.1689,-6.1701,-6.1793,-6.1792,-6.1791,-6.184,-6.1844,-6.1935,-6.1819,-6.1807,-6.1809,-6.1804,-6.187,-6.1878,-6.1901,-6.2024,-6.2027,-6.1913,-6.1917,-6.192,-6.1922,0,0,0,0,0,0,0,-6.1684,-6.1698,-6.1845,-6.1795,-6.1793,-6.1774,-6.1781,-6.1861,-6.1862,-6.1808,-6.1803,-6.1812,-6.1869,-6.1894,-6.1902,-6.2028,-6.1912,-6.1919,-6.1923,-6.1926,-6.2258,-6.2262,0,0,0,0,0,0,-6.1681,-6.1694,-6.1843,-6.1848,-6.1728,-6.1781,-6.1789,-6.1828,-6.1861,-6.1862,-6.1816,-6.1809,-6.1885,-6.1894,-6.1904,-6.2055,-6.192,-6.1926,-6.193,-6.2253,-6.2259,-6.2264,0,0,0,0,0,0,-6.1677,-6.1695,-6.184,-6.1769,-6.1786,-6.1789,-6.1834,-6.1832,-6.1857,-6.1867,-6.1867,-6.1842,-6.1881,-6.1894,-6.1991,-6.2056,-6.1929,-6.1936,-6.2248,-6.2255,-6.2261,-6.2359,0,0,0,0,0,0,-6.1671,-6.1694,-6.1744,-6.1771,-6.179,-6.1927,-6.1838,-6.1837,-6.187,-6.1861,-6.1891,-6.1892,-6.1879,-6.1982,-6.1998,-6.2063,-6.1941,-6.2242,-6.2251,-6.2259,-6.235,-6.2368,-6.2384,0,0,0,0,0,-6.1664,-6.1768,-6.1747,-6.1765,-6.1853,-6.1931,-6.1942,-6.1926,-6.1875,-6.1924,-6.1931,-6.1891,-6.2048,-6.1992,-6.201,-6.2079,-6.2237,-6.2248,-6.2258,-6.2342,-6.2365,-6.2384,0,0,0,0,0,0,-6.1747,-6.1771,-6.1747,-6.1863,-6.1896,-6.1918,-6.198,-6.1951,-6.1997,-6.1987,-6.1964,-6.1971,-6.2074,-6.2087,-6.2024,-6.2204,-6.2134,-6.2149,-6.2191,-6.2213,-6.223,-6.2222,-6.1947,0,0,0,0,0,-6.178,-6.1842,-6.1859,-6.196,-6.1978,-6.1977,-6.201,-6.1995,-6.2027,-6.204,-6.2053,-6.2086,-6.2141,-6.2179,-6.2231,-6.2353,-6.2357,-6.2409,-6.2426,-6.244,-6.2452,-6.2514,-6.2536,-6.2298,-6.2298,-6.2298,0,0,-6.1846,-6.1866,-6.1907,-6.1977,-6.2,-6.2064,-6.1988,-6.206,-6.2106,-6.2051,-6.2142,-6.2154,-6.2188,-6.2297,-6.2346,-6.2311,-6.2519,-6.2454,-6.2465,-6.2469,-6.2527,-6.255,-6.257,-6.2306,-6.2304,-6.2303,0,0,-6.1998,-6.2022,-6.2106,-6.2132,-6.2168,-6.2167,-6.2188,-6.2215,-6.2221,-6.2313,-6.2272,-6.2328,-6.2426,-6.2451,-6.2476,-6.264,-6.2604,-6.2658,-6.2746,-6.2807,-6.2826,-6.2842,-6.2897,-6.2917,-6.2671,-6.2671,-6.2671,0,-6.2074,-6.217,-6.2154,-6.2227,-6.2258,-6.2213,-6.2298,-6.2323,-6.2375,-6.2397,-6.2358,-6.2479,-6.2499,-6.2612,-6.2652,-6.2676,-6.2697,-6.2652,-6.2825,-6.2841,-6.2856,-6.2908,-6.2929,-6.2677,-6.2676,-6.2676,-6.2675,0,-6.2261,-6.2328,-6.2392,-6.2443,-6.2482,-6.2562,-6.2556,-6.2598,-6.258,-6.2583,-6.2676,-6.27,-6.2755,-6.2782,-6.2765,-6.2892,-6.2869,-6.2829,-6.2756,-6.2885,-6.2933,-6.2953,-6.2685,-6.2683,-6.2681,-6.268,0,0,-6.2463,-6.2506,-6.2529,-6.2551,-6.2589,-6.264,-6.2718,-6.2772,-6.2806,-6.2845,-6.2907,-6.2992,-6.2954,-6.2983,-6.297,-6.3024,-6.3148,-6.2976,-6.2977,-6.3003,-6.3285,-6.3312,-6.3336,-6.3127,-6.313,-6.3134,-6.3281,0,-6.2613,-6.2746,-6.2735,-6.2861,-6.2921,-6.288,-6.2947,-6.2977,-6.2982,-6.3033,-6.3039,-6.3097,-6.3046,-6.3062,-6.3115,-6.3122,-6.3203,-6.3112,-6.3181,-6.3183,-6.3168,-6.3361,-6.339,-6.3528,-6.33,-6.3303,-6.3306,0,-6.2804,-6.2849,-6.2981,-6.3009,-6.3034,-6.3094,-6.3142,-6.3193,-6.3226,-6.3226,-6.326,-6.3237,-6.3313,-6.3244,-6.3347,-6.3285,-6.3313,-6.3321,-6.3326,-6.3328,-6.3249,-6.3364,-6.3572,-6.3591,-6.3336,-6.3334,-6.3331,0,-6.2933,-6.3028,-6.3118,-6.3139,-6.3175,-6.3217,-6.3234,-6.3263,-6.3297,-6.334,-6.3361,-6.3413,-6.344,-6.348,-6.3471,-6.3422,-6.3575,-6.3506,-6.3574,-6.3574,-6.3604,-6.3601,-6.3815,-6.3631,-6.3631,-6.3631,-6.363,0,-6.3099,-6.318,-6.3176,-6.3231,-6.332,-6.3307,-6.3396,-6.3407,-6.3434,-6.3489,-6.3459,-6.3512,-6.3499,-6.3552,-6.3546,-6.363,-6.3644,-6.3644,-6.364,-6.3644,-6.3643,-6.3658,-6.3646,-6.3636,-6.3635,-6.3634,-6.3633,0,-6.3255,-6.3257,-6.3351,-6.3379,-6.3387,-6.3452,-6.3474,-6.3525,-6.3529,-6.36,-6.3616,-6.3622,-6.3681,-6.3678,-6.3746,-6.3742,-6.3845,-6.3833,-6.3833,-6.3829,-6.3896,-6.3888,-6.4122,-6.4151,-6.3953,-6.3955,-6.3957,0,-6.3358,-6.3419,-6.3453,-6.3489,-6.3508,-6.3566,-6.36,-6.3591,-6.3627,-6.367,-6.3715,-6.3773,-6.3817,-6.3915,-6.3924,-6.3976,-6.3961,-6.4041,-6.3968,-6.3969,-6.3957,-6.3951,-6.3956,-6.4053,-6.4055,-6.4057,-6.4058,0,-6.3539,-6.3537,-6.3587,-6.3639,-6.368,-6.372,-6.3756,-6.3787,-6.3781,-6.3823,-6.3884,-6.3919,-6.3989,-6.4045,-6.4095,-6.4111,-6.4082,-6.4082,-6.4099,-6.4101,-6.4096,-6.4095,-6.3866,-6.4075,-6.4073,-6.4072,-6.4071,-6.407,-6.3668,-6.372,-6.3752,-6.3809,-6.3836,-6.3871,-6.3919,-6.393,-6.3981,-6.4037,-6.4029,-6.4096,-6.4127,-6.4191,-6.4212,-6.4264,-6.4235,-6.4262,-6.4268,-6.4274,-6.4279,-6.4093,-6.4274,-6.4273,-6.4273,-6.4272,-6.4272,0,-6.3844,-6.3863,-6.3916,-6.3967,-6.4012,-6.3985,-6.4024,-6.4063,-6.4123,-6.4155,-6.42,-6.427,-6.4324,-6.4339,-6.4392,-6.443,-6.4418,-6.4444,-6.4438,-6.4441,-6.4304,-6.4281,-6.4452,-6.4452,-6.4452,-6.4452,-6.4452,-6.4452,-6.394,-6.4025,-6.4027,-6.4125,-6.4143,-6.4209,-6.4233,-6.4264,-6.429,-6.4369,-6.4414,-6.4425,-6.4449,-6.4503,-6.4552,-6.4555,-6.4573,-6.4603,-6.46,-6.447,-6.4452,-6.4434,-6.4412,-6.4608,-6.4608,-6.4733,-6.4734,-6.4735]},{"header":{"parameterUnit":"m.s-1","parameterCategory":1,"la1":30.2991,"la2":30.254,"lo1":-89.0895,"lo2":-89.0444,"dy":0.0017,"dx":0.0017,"nx":28,"ny":28,"refTime":"2025-01-04T03:00:00:Z","depth":0,"parameterNumber":3,"parameterNumberName":"V-component_of_WINDS"},"data":[0,0,0,0,0,0,0,0,0,0,0,0,0,0,0,0,0,0,0,0,0,0,0,0,0,0,0,0,0,0,0,0,0,0,0,0,0,0,0,0,0,0,0,0,0,0,0,0,0,0,0,0,0,0,0,0,0,0,1.4919,1.4921,0,1.5062,1.5064,1.5066,1.505,1.5047,1.5045,1.5043,1.5192,1.5198,1.5204,0,0,0,0,0,0,0,0,0,0,0,0,0,1.4636,1.4641,1.4919,1.4921,1.4922,1.5062,1.5064,1.5066,1.505,1.5047,1.5045,1.5042,1.519,1.5197,1.5205,0,0,0,0,0,0,0,0,0,0,0,0,0,1.4767,1.4643,1.4919,1.4931,1.4934,1.5062,1.5064,1.5067,1.5051,1.5047,1.5044,1.5041,1.5188,1.5197,1.5206,1.5331,0,0,1.5233,1.5237,0,0,0,0,0,0,0,0,1.4759,1.4777,1.4928,1.4931,1.4934,1.5035,1.5019,1.5155,1.5052,1.5006,1.5043,1.5039,1.5143,1.5155,1.519,1.5338,1.5344,1.5234,1.524,1.5244,1.5246,0,0,0,0,0,0,0,1.475,1.4771,1.4976,1.493,1.4934,1.4931,1.4946,1.5045,1.5092,1.501,1.5009,1.5026,1.5144,1.5181,1.5193,1.5346,1.5234,1.5242,1.5248,1.5251,1.5608,1.5612,0,0,0,0,0,0,1.4738,1.4763,1.4971,1.498,1.4836,1.4939,1.4956,1.5006,1.5091,1.5101,1.5029,1.5025,1.5167,1.5182,1.5198,1.5353,1.5244,1.5252,1.5258,1.5604,1.5609,1.5613,0,0,0,0,0,0,1.4732,1.4756,1.4965,1.4872,1.4898,1.4948,1.5004,1.501,1.5048,1.5105,1.5114,1.5058,1.5165,1.5185,1.5299,1.5358,1.5256,1.5265,1.5599,1.5605,1.5611,1.5661,0,0,0,0,0,0,1.4723,1.4754,1.4801,1.4873,1.4903,1.5062,1.5007,1.5016,1.5063,1.5059,1.5135,1.5144,1.5164,1.5285,1.5308,1.5368,1.5272,1.5594,1.5602,1.5609,1.5655,1.5668,1.568,0,0,0,0,0,1.4713,1.4809,1.4803,1.4828,1.4962,1.5065,1.5083,1.5103,1.5068,1.5117,1.5154,1.5142,1.5347,1.5297,1.5322,1.5387,1.5591,1.56,1.5608,1.5649,1.5666,1.568,0,0,0,0,0,0,1.4743,1.4819,1.4813,1.4934,1.4994,1.5062,1.5124,1.5119,1.519,1.5183,1.5206,1.5223,1.5338,1.5373,1.5316,1.5514,1.5464,1.5479,1.5487,1.5503,1.5515,1.5505,1.5279,0,0,0,0,0,1.4763,1.4839,1.4902,1.5003,1.5033,1.5074,1.5119,1.513,1.5192,1.5217,1.5263,1.5325,1.5404,1.5455,1.553,1.566,1.5678,1.5717,1.5729,1.574,1.5752,1.5826,1.5845,1.5642,1.5642,1.5642,0,0,1.4807,1.4858,1.4904,1.5011,1.5058,1.5138,1.5095,1.518,1.5241,1.523,1.5341,1.5377,1.5447,1.557,1.5626,1.5603,1.5812,1.5751,1.5759,1.5766,1.5838,1.5857,1.5874,1.5649,1.5647,1.5646,0,0,1.4927,1.4972,1.5063,1.5111,1.5183,1.521,1.5232,1.5303,1.5326,1.5437,1.5432,1.5505,1.5639,1.5691,1.5734,1.5878,1.5871,1.5902,1.5969,1.6041,1.6057,1.6071,1.6125,1.6144,1.5914,1.5914,1.5914,0,1.4972,1.5091,1.511,1.5198,1.5246,1.5241,1.5334,1.5381,1.5474,1.5508,1.5481,1.5652,1.5699,1.5835,1.587,1.5905,1.5933,1.5894,1.6053,1.6067,1.6081,1.6133,1.6153,1.5918,1.5917,1.5917,1.5917,0,1.5145,1.5228,1.5293,1.5384,1.5439,1.5529,1.5564,1.5618,1.5624,1.5655,1.577,1.5826,1.5915,1.5948,1.5954,1.6086,1.607,1.6047,1.5998,1.6104,1.6153,1.6172,1.5923,1.5922,1.5921,1.592,0,0,1.5286,1.5388,1.5412,1.5454,1.5535,1.56,1.5692,1.5778,1.5826,1.5891,1.597,1.6085,1.6066,1.6116,1.6129,1.6192,1.6305,1.6162,1.6164,1.6189,1.6458,1.6475,1.6497,1.6301,1.6304,1.6307,1.6452,0,1.5416,1.5577,1.5598,1.5741,1.582,1.5817,1.5897,1.5957,1.5988,1.6061,1.6096,1.6178,1.6145,1.6176,1.6238,1.6278,1.636,1.6268,1.6376,1.638,1.636,1.6523,1.6541,1.6675,1.6471,1.6475,1.6477,0,1.5589,1.566,1.5811,1.5883,1.5917,1.5989,1.6072,1.614,1.6209,1.6227,1.6285,1.629,1.6387,1.6334,1.6469,1.6406,1.6452,1.6479,1.6484,1.6496,1.6436,1.6541,1.6718,1.6738,1.6507,1.6504,1.6502,0,1.568,1.5813,1.5922,1.5958,1.6044,1.6095,1.6134,1.6199,1.6251,1.6323,1.6358,1.644,1.6486,1.6551,1.6581,1.6538,1.6715,1.6663,1.6736,1.6735,1.6774,1.6771,1.6962,1.68,1.68,1.68,1.6799,0,1.5824,1.5917,1.5964,1.6031,1.6137,1.6161,1.6265,1.6302,1.6361,1.6436,1.6439,1.651,1.6543,1.662,1.6643,1.6754,1.6774,1.6793,1.6799,1.6794,1.6792,1.6825,1.6818,1.6805,1.6804,1.6803,1.6802,0,1.5943,1.5978,1.6097,1.617,1.6191,1.6266,1.6329,1.6395,1.6427,1.6523,1.6547,1.6597,1.6688,1.6723,1.6834,1.685,1.6978,1.6975,1.6955,1.6957,1.7028,1.7022,1.7249,1.7281,1.7096,1.7098,1.7099,0,1.6034,1.6106,1.6187,1.6238,1.6278,1.636,1.6413,1.6441,1.6497,1.6582,1.6638,1.6729,1.6803,1.6949,1.6997,1.7083,1.7083,1.7157,1.7096,1.709,1.7087,1.7083,1.7092,1.7168,1.717,1.7172,1.7173,0,1.6191,1.6205,1.6281,1.6365,1.6429,1.6496,1.6561,1.6603,1.6641,1.6704,1.6798,1.6855,1.697,1.7061,1.715,1.7191,1.719,1.7192,1.7213,1.721,1.7197,1.7208,1.6988,1.7186,1.7185,1.7184,1.7183,1.7183,1.63,1.6365,1.6434,1.652,1.6572,1.6634,1.67,1.6741,1.6819,1.6914,1.6926,1.7027,1.7097,1.7216,1.7262,1.7343,1.7323,1.7354,1.7362,1.737,1.7376,1.7183,1.7358,1.7358,1.7358,1.7358,1.7357,0,1.646,1.6504,1.6583,1.6675,1.6743,1.6735,1.6808,1.6866,1.6955,1.702,1.7093,1.7203,1.7292,1.7347,1.7437,1.7491,1.7493,1.7514,1.7512,1.7522,1.7387,1.736,1.7512,1.7512,1.7512,1.7512,1.7512,1.7512,1.6551,1.6662,1.6685,1.6823,1.6867,1.6965,1.7008,1.7066,1.7118,1.724,1.7314,1.7349,1.7412,1.7507,1.7589,1.7603,1.7638,1.7661,1.7674,1.7547,1.7531,1.7516,1.7491,1.7668,1.7668,1.7803,1.7804,1.7805]}]]